,,Stat5,,Stat1,,Stat2,,Stat3,,Stat4,,Wind1,,Wind1,
time,status,PA1M_AVG,status,PR1M_SUM,status,RH1M_AVG,status,SR1M_AVG,status,TA1M_AVG,status,W1dAve1m,status,W1sAve1m,
2002-01-22, 00:00:00,VALID,918.136,VALID,0,VALID,99.2322,VALID,-0.0509425,VALID,18.9548,VALID,250,VALID,0.0657895,
2002-01-22, 00:01:00,VALID,918.136,VALID,0,VALID,99.2322,VALID,-0.0509425,VALID,18.9613,VALID,246,VALID,0.205653,
2002-01-22, 00:02:00,VALID,918.092,VALID,0.2,VALID,99.2462,VALID,-0.0679233,VALID,18.9774,VALID,212,VALID,0.578125,
2002-01-22, 00:03:01,VALID,918.044,VALID,0.2,VALID,99.2449,VALID,-0.0679233,VALID,18.9769,VALID,188,VALID,0.722439,
2002-01-22, 00:04:00,VALID,917.986,VALID,0,VALID,99.2449,VALID,-0.0339617,VALID,18.9898,VALID,188,VALID,0.851563,
2002-01-22, 00:05:00,VALID,917.92,VALID,0.2,VALID,99.2551,VALID,-0.0339617,VALID,18.9831,VALID,181,VALID,1.08277,
2002-01-22, 00:06:00,VALID,917.843,VALID,0.2,VALID,99.2551,VALID,-0.0339617,VALID,19.003,VALID,174,VALID,1.52578,
2002-01-22, 00:07:00,VALID,917.79,VALID,0.2,VALID,99.264,VALID,0,VALID,19.0062,VALID,174,VALID,1.71443,
2002-01-22, 00:08:01,VALID,917.746,VALID,0.2,VALID,99.2678,VALID,0.0339617,VALID,18.9991,VALID,174,VALID,1.78848,
2002-01-22, 00:09:00,VALID,917.711,VALID,0.2,VALID,99.264,VALID,0.0339617,VALID,19.0018,VALID,179,VALID,1.31504,
2002-01-22, 00:10:01,VALID,917.708,VALID,0.4,VALID,99.2653,VALID,0.0679233,VALID,19.0115,VALID,192,VALID,0.976763,
2002-01-22, 00:11:00,VALID,917.701,VALID,0.2,VALID,99.2665,VALID,0.0339617,VALID,19.0083,VALID,189,VALID,0.723684,
2002-01-22, 00:12:00,VALID,917.708,VALID,0.2,VALID,99.2716,VALID,0.0679233,VALID,19.012,VALID,240,VALID,0.797852,
2002-01-22, 00:13:00,VALID,917.715,VALID,0.2,VALID,99.2691,VALID,0.0339617,VALID,19.0085,VALID,176,VALID,0.387109,
2002-01-22, 00:14:01,VALID,917.748,VALID,0,VALID,99.2729,VALID,0.0679233,VALID,18.9951,VALID,121,VALID,0.0124199,
2002-01-22, 00:15:00,VALID,917.755,VALID,0.2,VALID,99.2729,VALID,0.0509425,VALID,18.9958,VALID,32,VALID,0.659539,
2002-01-22, 00:16:01,VALID,917.771,VALID,0.2,VALID,99.2843,VALID,0.0509425,VALID,18.9824,VALID,14,VALID,1.21406,
2002-01-22, 00:17:00,VALID,917.783,VALID,0,VALID,99.2869,VALID,0.0339617,VALID,18.9961,VALID,20,VALID,1.35859,
2002-01-22, 00:18:01,VALID,917.778,VALID,0.2,VALID,99.2831,VALID,0,VALID,18.973,VALID,15,VALID,1.24179,
2002-01-22, 00:19:00,VALID,917.78,VALID,0.2,VALID,99.2831,VALID,0.0339617,VALID,18.9767,VALID,13,VALID,1.18853,
2002-01-22, 00:20:01,VALID,917.753,VALID,0.2,VALID,99.2831,VALID,0.0679233,VALID,18.9628,VALID,21,VALID,0.646289,
2002-01-22, 00:21:00,VALID,917.751,VALID,0,VALID,99.2882,VALID,0.0339617,VALID,18.9665,VALID,35,VALID,1.00664,
2002-01-22, 00:22:01,VALID,917.739,VALID,0.2,VALID,99.2843,VALID,0.0169808,VALID,18.9541,VALID,34,VALID,0.982372,
2002-01-22, 00:23:00,VALID,917.735,VALID,0.2,VALID,99.2958,VALID,-0.0339617,VALID,18.9287,VALID,28,VALID,0.943257,
2002-01-22, 00:24:00,VALID,917.728,VALID,0.2,VALID,99.3047,VALID,0.0169808,VALID,18.9375,VALID,23,VALID,1.05703,
2002-01-22, 00:25:00,VALID,917.73,VALID,0,VALID,99.3123,VALID,0.0509425,VALID,18.9404,VALID,33,VALID,1.15527,
2002-01-22, 00:26:01,VALID,917.73,VALID,0.2,VALID,99.2983,VALID,0.0509425,VALID,18.9206,VALID,30,VALID,1.04207,
2002-01-22, 00:27:00,VALID,917.722,VALID,0.2,VALID,99.3149,VALID,0.0679233,VALID,18.9241,VALID,19,VALID,0.832237,
2002-01-22, 00:28:01,VALID,917.718,VALID,0.2,VALID,99.3199,VALID,0.0509425,VALID,18.9278,VALID,23,VALID,1.11523,
2002-01-22, 00:29:00,VALID,917.705,VALID,0,VALID,99.3327,VALID,0.0849042,VALID,18.9273,VALID,12,VALID,0.882422,
2002-01-22, 00:30:01,VALID,917.688,VALID,0.2,VALID,99.3403,VALID,0.0509425,VALID,18.9273,VALID,6,VALID,0.712139,
2002-01-22, 00:31:00,VALID,917.671,VALID,0.2,VALID,99.3377,VALID,0.0169808,VALID,18.9178,VALID,356,VALID,0.70662,
2002-01-22, 00:32:01,VALID,917.649,VALID,0,VALID,99.3365,VALID,0.0509425,VALID,18.9146,VALID,357,VALID,0.787891,
2002-01-22, 00:33:00,VALID,917.628,VALID,0.2,VALID,99.3339,VALID,0.0509425,VALID,18.8945,VALID,359,VALID,0.692578,
2002-01-22, 00:34:01,VALID,917.625,VALID,0,VALID,99.3352,VALID,0.0679233,VALID,18.8922,VALID,1,VALID,0.598357,
2002-01-22, 00:35:01,VALID,917.604,VALID,0.2,VALID,99.339,VALID,0.0169808,VALID,18.9119,VALID,1,VALID,0.668586,
2002-01-22, 00:36:00,VALID,917.6,VALID,0,VALID,99.3365,VALID,0.0339617,VALID,18.9054,VALID,18,VALID,0.728125,
2002-01-22, 00:37:00,VALID,917.609,VALID,0.2,VALID,99.3441,VALID,0,VALID,18.8994,VALID,29,VALID,0.7375,
2002-01-22, 00:38:00,VALID,917.611,VALID,0,VALID,99.3403,VALID,-0.0679233,VALID,18.877,VALID,35,VALID,0.851162,
2002-01-22, 00:39:00,VALID,917.611,VALID,0.2,VALID,99.3466,VALID,-0.0509425,VALID,18.8646,VALID,40,VALID,0.966694,
2002-01-22, 00:40:01,VALID,917.618,VALID,0,VALID,99.3441,VALID,-0.0339617,VALID,18.8805,VALID,46,VALID,0.982813,
2002-01-22, 00:41:00,VALID,917.617,VALID,0.2,VALID,99.353,VALID,0,VALID,18.8706,VALID,42,VALID,0.876172,
2002-01-22, 00:42:00,VALID,917.612,VALID,0,VALID,99.3466,VALID,-0.0509425,VALID,18.8581,VALID,35,VALID,0.740986,
2002-01-22, 00:43:00,VALID,917.6,VALID,0.2,VALID,99.3568,VALID,-0.0339617,VALID,18.8547,VALID,21,VALID,0.763363,
2002-01-22, 00:44:01,VALID,917.582,VALID,0,VALID,99.367,VALID,-0.0509425,VALID,18.8586,VALID,16,VALID,0.783398,
2002-01-22, 00:45:00,VALID,917.578,VALID,0.2,VALID,99.3492,VALID,-0.0509425,VALID,18.8351,VALID,4,VALID,0.727344,
2002-01-22, 00:46:01,VALID,917.562,VALID,0,VALID,99.3594,VALID,-0.0679233,VALID,18.8321,VALID,9,VALID,0.708934,
2002-01-22, 00:47:00,VALID,917.546,VALID,0,VALID,99.3644,VALID,-0.0679233,VALID,18.8422,VALID,13,VALID,0.386924,
2002-01-22, 00:48:00,VALID,917.544,VALID,0.2,VALID,99.3708,VALID,-0.0169808,VALID,18.8321,VALID,50,VALID,0.366992,
2002-01-22, 00:49:00,VALID,917.546,VALID,0,VALID,99.3784,VALID,-0.0509425,VALID,18.8452,VALID,46,VALID,0.568359,
2002-01-22, 00:50:01,VALID,917.546,VALID,0,VALID,99.3759,VALID,-0.0509425,VALID,18.8485,VALID,61,VALID,0.758013,
2002-01-22, 00:51:00,VALID,917.547,VALID,0.2,VALID,99.3962,VALID,-0.0679233,VALID,18.8519,VALID,51,VALID,0.641447,
2002-01-22, 00:52:01,VALID,917.545,VALID,0,VALID,99.3835,VALID,-0.0169808,VALID,18.8385,VALID,43,VALID,0.633789,
2002-01-22, 00:53:00,VALID,917.546,VALID,0.2,VALID,99.3835,VALID,-0.0509425,VALID,18.836,VALID,31,VALID,0.684375,
2002-01-22, 00:54:01,VALID,917.542,VALID,0,VALID,99.3962,VALID,-0.0339617,VALID,18.8422,VALID,17,VALID,0.365585,
2002-01-22, 00:55:00,VALID,917.535,VALID,0,VALID,99.395,VALID,-0.0509425,VALID,18.8485,VALID,12,VALID,0.429893,
2002-01-22, 00:56:01,VALID,917.528,VALID,0.2,VALID,99.3962,VALID,-0.0339617,VALID,18.8616,VALID,12,VALID,0.375977,
2002-01-22, 00:57:00,VALID,917.516,VALID,0,VALID,99.4026,VALID,-0.0509425,VALID,18.8579,VALID,10,VALID,0.563867,
2002-01-22, 00:58:01,VALID,917.509,VALID,0,VALID,99.4026,VALID,-0.0509425,VALID,18.8614,VALID,10,VALID,0.618389,
2002-01-22, 00:59:00,VALID,917.513,VALID,0.2,VALID,99.409,VALID,-0.0679233,VALID,18.8616,VALID,11,VALID,0.42537,
2002-01-22, 01:00:00,VALID,917.515,VALID,0,VALID,99.409,VALID,-0.0169808,VALID,18.8646,VALID,12,VALID,0.624414,
2002-01-22, 01:01:00,VALID,917.517,VALID,0.2,VALID,99.4217,VALID,-0.0169808,VALID,18.8607,VALID,12,VALID,0.486328,
2002-01-22, 01:02:01,VALID,917.532,VALID,0,VALID,99.409,VALID,-0.0169808,VALID,18.8807,VALID,32,VALID,0.839944,
2002-01-22, 01:03:00,VALID,917.55,VALID,0.2,VALID,99.4179,VALID,-0.0169808,VALID,18.89,VALID,27,VALID,0.739515,
2002-01-22, 01:04:01,VALID,917.555,VALID,0,VALID,99.4102,VALID,-0.0509425,VALID,18.8932,VALID,33,VALID,0.933008,
2002-01-22, 01:05:00,VALID,917.566,VALID,0,VALID,99.4166,VALID,0,VALID,18.8997,VALID,31,VALID,1.09355,
2002-01-22, 01:06:01,VALID,917.584,VALID,0.2,VALID,99.4242,VALID,-0.0679233,VALID,18.913,VALID,32,VALID,1.29447,
2002-01-22, 01:07:00,VALID,917.6,VALID,0,VALID,99.4153,VALID,-0.0169808,VALID,18.9165,VALID,40,VALID,1.05613,
2002-01-22, 01:08:01,VALID,917.621,VALID,0.2,VALID,99.4268,VALID,-0.0509425,VALID,18.9029,VALID,46,VALID,1.11797,
2002-01-22, 01:09:00,VALID,917.636,VALID,0,VALID,99.4268,VALID,-0.0169808,VALID,18.919,VALID,45,VALID,0.872656,
2002-01-22, 01:10:01,VALID,917.657,VALID,0.2,VALID,99.4242,VALID,-0.0679233,VALID,18.9096,VALID,33,VALID,0.920473,
2002-01-22, 01:11:01,VALID,917.673,VALID,0,VALID,99.4242,VALID,-0.0169808,VALID,18.8964,VALID,47,VALID,0.547903,
2002-01-22, 01:12:00,VALID,917.682,VALID,0.2,VALID,99.4242,VALID,-0.0849042,VALID,18.9068,VALID,51,VALID,0.726953,
2002-01-22, 01:13:00,VALID,917.682,VALID,0,VALID,99.4306,VALID,-0.0679233,VALID,18.9004,VALID,40,VALID,0.738281,
2002-01-22, 01:14:01,VALID,917.677,VALID,0.2,VALID,99.4331,VALID,-0.0679233,VALID,18.8904,VALID,41,VALID,0.653245,
2002-01-22, 01:15:00,VALID,917.665,VALID,0,VALID,99.4242,VALID,-0.0679233,VALID,18.8971,VALID,28,VALID,0.80037,
2002-01-22, 01:16:01,VALID,917.64,VALID,0.2,VALID,99.4293,VALID,-0.0679233,VALID,18.8969,VALID,8,VALID,0.777539,
2002-01-22, 01:17:01,VALID,917.605,VALID,0.2,VALID,99.4242,VALID,-0.0679233,VALID,18.8748,VALID,358,VALID,0.948242,
2002-01-22, 01:18:01,VALID,917.605,VALID,0.2,VALID,99.4268,VALID,-0.0679233,VALID,18.8683,VALID,356,VALID,0.973357,
2002-01-22, 01:19:01,VALID,917.57,VALID,0.2,VALID,99.4268,VALID,-0.0339617,VALID,18.8584,VALID,346,VALID,0.750411,
2002-01-22, 01:20:01,VALID,917.556,VALID,0,VALID,99.4255,VALID,-0.0679233,VALID,18.8549,VALID,316,VALID,0.632227,
2002-01-22, 01:21:00,VALID,917.533,VALID,0.2,VALID,99.4357,VALID,-0.0679233,VALID,18.8616,VALID,333,VALID,0.558203,
2002-01-22, 01:22:01,VALID,917.516,VALID,0.2,VALID,99.4395,VALID,-0.0679233,VALID,18.8517,VALID,345,VALID,0.419671,
2002-01-22, 01:23:01,VALID,917.499,VALID,0.2,VALID,99.442,VALID,-0.0509425,VALID,18.8554,VALID,344,VALID,0.336143,
2002-01-22, 01:24:01,VALID,917.482,VALID,0.2,VALID,99.4357,VALID,-0.0509425,VALID,18.8547,VALID,339,VALID,0.304297,
2002-01-22, 01:25:01,VALID,917.475,VALID,0.2,VALID,99.4458,VALID,-0.0509425,VALID,18.8648,VALID,319,VALID,0.169141,
2002-01-22, 01:26:01,VALID,917.446,VALID,0,VALID,99.4471,VALID,-0.0679233,VALID,18.8618,VALID,307,VALID,0.0717147,
2002-01-22, 01:27:01,VALID,917.44,VALID,0.2,VALID,99.4496,VALID,-0.0679233,VALID,18.8683,VALID,340,VALID,0.0754523,
2002-01-22, 01:28:01,VALID,917.437,VALID,0.2,VALID,99.4446,VALID,-0.0169808,VALID,18.8487,VALID,328,VALID,0.236719,
2002-01-22, 01:29:01,VALID,917.419,VALID,0.2,VALID,99.4484,VALID,-0.0849042,VALID,18.8323,VALID,326,VALID,0.0791016,
2002-01-22, 01:30:01,VALID,917.409,VALID,0.2,VALID,99.4433,VALID,-0.0679233,VALID,18.8323,VALID,326,VALID,0.0358574,
2002-01-22, 01:31:01,VALID,917.409,VALID,0,VALID,99.4471,VALID,-0.0679233,VALID,18.8422,VALID,331,VALID,0.182771,
2002-01-22, 01:32:01,VALID,917.411,VALID,0.2,VALID,99.4522,VALID,-0.101885,VALID,18.8621,VALID,345,VALID,0.161719,
2002-01-22, 01:33:01,VALID,917.412,VALID,0.2,VALID,99.4535,VALID,-0.0849042,VALID,18.8611,VALID,9,VALID,0.271875,
2002-01-22, 01:34:01,VALID,917.394,VALID,0.2,VALID,99.4471,VALID,-0.0849042,VALID,18.8683,VALID,26,VALID,0.338341,
2002-01-22, 01:35:01,VALID,917.373,VALID,0,VALID,99.442,VALID,-0.0849042,VALID,18.8651,VALID,53,VALID,0.259046,
2002-01-22, 01:36:01,VALID,917.348,VALID,0.2,VALID,99.4522,VALID,-0.0849042,VALID,18.8362,VALID,58,VALID,0.326172,
2002-01-22, 01:37:01,VALID,917.339,VALID,0.2,VALID,99.4496,VALID,-0.101885,VALID,18.8162,VALID,58,VALID,0.238867,
2002-01-22, 01:38:01,VALID,917.324,VALID,0,VALID,99.4484,VALID,-0.0849042,VALID,18.8129,VALID,58,VALID,0.174279,
2002-01-22, 01:39:01,VALID,917.319,VALID,0.2,VALID,99.4509,VALID,-0.0679233,VALID,18.8196,VALID,57,VALID,0.193462,
2002-01-22, 01:40:01,VALID,917.332,VALID,0,VALID,99.4458,VALID,-0.101885,VALID,18.8323,VALID,36,VALID,0.456445,
2002-01-22, 01:41:01,VALID,917.333,VALID,0.2,VALID,99.4585,VALID,-0.0679233,VALID,18.8258,VALID,23,VALID,0.532812,
2002-01-22, 01:42:01,VALID,917.328,VALID,0.2,VALID,99.4535,VALID,-0.0849042,VALID,18.8162,VALID,18,VALID,0.570513,
2002-01-22, 01:43:01,VALID,917.326,VALID,0,VALID,99.4547,VALID,-0.0849042,VALID,18.8129,VALID,17,VALID,0.203331,
2002-01-22, 01:44:00,VALID,917.307,VALID,0.2,VALID,99.4636,VALID,-0.0339617,VALID,18.8002,VALID,356,VALID,0.319336,
2002-01-22, 01:45:00,VALID,917.286,VALID,0,VALID,99.4547,VALID,-0.0509425,VALID,18.7702,VALID,18,VALID,0.868359,
2002-01-22, 01:46:00,VALID,917.268,VALID,0.2,VALID,99.4585,VALID,-0.0679233,VALID,18.7672,VALID,17,VALID,0.882011,
2002-01-22, 01:47:00,VALID,917.262,VALID,0,VALID,99.4624,VALID,-0.0849042,VALID,18.7679,VALID,13,VALID,0.116776,
2002-01-22, 01:48:00,VALID,917.26,VALID,0,VALID,99.4624,VALID,-0.0849042,VALID,18.7744,VALID,13,VALID,0,
2002-01-22, 01:49:00,VALID,917.252,VALID,0,VALID,99.4725,VALID,-0.0509425,VALID,18.7744,VALID,13,VALID,0,
2002-01-22, 01:50:00,VALID,917.259,VALID,0.2,VALID,99.4624,VALID,-0.0509425,VALID,18.7779,VALID,13,VALID,0,
2002-01-22, 01:51:00,VALID,917.256,VALID,0,VALID,99.4649,VALID,-0.0509425,VALID,18.7617,VALID,13,VALID,0.160773,
2002-01-22, 01:52:00,VALID,917.257,VALID,0,VALID,99.4611,VALID,-0.0509425,VALID,18.7578,VALID,13,VALID,0.145117,
2002-01-22, 01:53:00,VALID,917.259,VALID,0.2,VALID,99.4713,VALID,0.0509425,VALID,18.7638,VALID,13,VALID,0.34082,
2002-01-22, 01:54:00,VALID,917.252,VALID,0,VALID,99.4649,VALID,0.0339617,VALID,18.773,VALID,13,VALID,0.264223,
2002-01-22, 01:55:00,VALID,917.255,VALID,0.2,VALID,99.4738,VALID,0.0339617,VALID,18.7797,VALID,13,VALID,0.244038,
2002-01-22, 01:56:00,VALID,917.261,VALID,0,VALID,99.4713,VALID,0.0169808,VALID,18.7859,VALID,13,VALID,0.323242,
2002-01-22, 01:57:00,VALID,917.251,VALID,0,VALID,99.4751,VALID,0.0679233,VALID,18.7658,VALID,13,VALID,0.141406,
2002-01-22, 01:58:00,VALID,917.257,VALID,0.2,VALID,99.4687,VALID,0.0339617,VALID,18.767,VALID,13,VALID,0.266426,
2002-01-22, 01:59:00,VALID,917.243,VALID,0,VALID,99.4636,VALID,0.0849042,VALID,18.7412,VALID,68,VALID,0.400082,
2002-01-22, 02:00:00,VALID,917.233,VALID,0.2,VALID,99.4725,VALID,0.0849042,VALID,18.7213,VALID,112,VALID,0.405859,
2002-01-22, 02:01:00,VALID,917.223,VALID,0,VALID,99.4687,VALID,0.0339617,VALID,18.7183,VALID,125,VALID,0.423242,
2002-01-22, 02:02:00,VALID,917.201,VALID,0.2,VALID,99.4814,VALID,0.0679233,VALID,18.7015,VALID,129,VALID,0.552083,
2002-01-22, 02:03:00,VALID,917.193,VALID,0.2,VALID,99.4827,VALID,0.0509425,VALID,18.7052,VALID,126,VALID,0.478002,
2002-01-22, 02:04:00,VALID,917.182,VALID,0,VALID,99.4865,VALID,0.0509425,VALID,18.7086,VALID,123,VALID,0.436328,
2002-01-22, 02:05:00,VALID,917.175,VALID,0.2,VALID,99.4878,VALID,0.0509425,VALID,18.7186,VALID,120,VALID,0.217969,
2002-01-22, 02:06:00,VALID,917.166,VALID,0,VALID,99.4891,VALID,0.0509425,VALID,18.695,VALID,120,VALID,0.263822,
2002-01-22, 02:07:00,VALID,917.156,VALID,0.2,VALID,99.4916,VALID,0.0509425,VALID,18.7017,VALID,120,VALID,0.275905,
2002-01-22, 02:08:00,VALID,917.16,VALID,0,VALID,99.4929,VALID,0.0679233,VALID,18.7245,VALID,110,VALID,0.330859,
2002-01-22, 02:09:00,VALID,917.159,VALID,0.2,VALID,99.4942,VALID,0.0339617,VALID,18.7412,VALID,78,VALID,0.42207,
2002-01-22, 02:10:00,VALID,917.157,VALID,0,VALID,99.4891,VALID,0.0679233,VALID,18.7442,VALID,71,VALID,0.466546,
2002-01-22, 02:11:00,VALID,917.154,VALID,0.2,VALID,99.484,VALID,0.0509425,VALID,18.7409,VALID,61,VALID,0.580387,
2002-01-22, 02:12:00,VALID,917.159,VALID,0,VALID,99.4967,VALID,0.0339617,VALID,18.7444,VALID,64,VALID,0.518359,
2002-01-22, 02:13:00,VALID,917.16,VALID,0.2,VALID,99.4954,VALID,0.0509425,VALID,18.7409,VALID,65,VALID,0.613477,
2002-01-22, 02:14:00,VALID,917.154,VALID,0.4,VALID,99.4916,VALID,0.0339617,VALID,18.7213,VALID,78,VALID,0.647436,
2002-01-22, 02:15:00,VALID,917.146,VALID,0.2,VALID,99.484,VALID,0.0339617,VALID,18.6957,VALID,87,VALID,0.633224,
2002-01-22, 02:16:00,VALID,917.134,VALID,0,VALID,99.484,VALID,0.0679233,VALID,18.6826,VALID,99,VALID,0.726563,
2002-01-22, 02:17:00,VALID,917.111,VALID,0.2,VALID,99.4929,VALID,0.0509425,VALID,18.6664,VALID,94,VALID,0.621289,
2002-01-22, 02:18:00,VALID,917.096,VALID,0.2,VALID,99.4954,VALID,0.0679233,VALID,18.657,VALID,97,VALID,0.522837,
2002-01-22, 02:19:00,VALID,917.075,VALID,0.2,VALID,99.4954,VALID,0.0339617,VALID,18.657,VALID,94,VALID,0.438322,
2002-01-22, 02:20:00,VALID,917.067,VALID,0.2,VALID,99.5031,VALID,0.0679233,VALID,18.6537,VALID,97,VALID,0.536719,
2002-01-22, 02:21:00,VALID,917.054,VALID,0,VALID,99.5018,VALID,0.0679233,VALID,18.6572,VALID,90,VALID,0.332031,
2002-01-22, 02:22:00,VALID,917.034,VALID,0.2,VALID,99.4992,VALID,0.0169808,VALID,18.6574,VALID,87,VALID,0.416867,
2002-01-22, 02:23:00,VALID,917.022,VALID,0,VALID,99.5005,VALID,-0.0339617,VALID,18.6586,VALID,83,VALID,0.557566,
2002-01-22, 02:24:00,VALID,917.004,VALID,0,VALID,99.5107,VALID,-0.101885,VALID,18.6584,VALID,71,VALID,0.419141,
2002-01-22, 02:25:00,VALID,916.983,VALID,0,VALID,99.5209,VALID,0,VALID,18.681,VALID,63,VALID,0.509375,
2002-01-22, 02:26:00,VALID,916.975,VALID,0.2,VALID,99.512,VALID,-0.101885,VALID,18.6782,VALID,64,VALID,0.419671,
2002-01-22, 02:27:00,VALID,916.951,VALID,0,VALID,99.5056,VALID,-0.0509425,VALID,18.6773,VALID,57,VALID,0.308594,
2002-01-22, 02:28:00,VALID,916.932,VALID,0.2,VALID,99.498,VALID,-0.101885,VALID,18.6914,VALID,62,VALID,0.0132813,
2002-01-22, 02:29:00,VALID,916.918,VALID,0,VALID,99.5107,VALID,-0.0679233,VALID,18.6874,VALID,62,VALID,0,
2002-01-22, 02:30:00,VALID,916.88,VALID,0,VALID,99.5056,VALID,-0.0339617,VALID,18.6939,VALID,62,VALID,0,
2002-01-22, 02:31:00,VALID,916.872,VALID,0.2,VALID,99.5094,VALID,-0.0339617,VALID,18.7165,VALID,134,VALID,0.307977,
2002-01-22, 02:32:00,VALID,916.861,VALID,0,VALID,99.512,VALID,-0.0509425,VALID,18.7133,VALID,151,VALID,0.407031,
2002-01-22, 02:33:00,VALID,916.843,VALID,0.2,VALID,99.5132,VALID,-0.0849042,VALID,18.7197,VALID,152,VALID,0.617969,
2002-01-22, 02:34:00,VALID,916.835,VALID,0,VALID,99.5183,VALID,-0.0849042,VALID,18.7262,VALID,152,VALID,0.657652,
2002-01-22, 02:35:00,VALID,916.829,VALID,0,VALID,99.5259,VALID,-0.101885,VALID,18.7423,VALID,148,VALID,0.786595,
2002-01-22, 02:36:00,VALID,916.814,VALID,0.2,VALID,99.5145,VALID,-0.0849042,VALID,18.7458,VALID,149,VALID,0.644531,
2002-01-22, 02:37:00,VALID,916.807,VALID,0,VALID,99.5209,VALID,-0.0849042,VALID,18.7324,VALID,135,VALID,0.69043,
2002-01-22, 02:38:00,VALID,916.791,VALID,0.2,VALID,99.5145,VALID,-0.101885,VALID,18.7359,VALID,130,VALID,0.518429,
2002-01-22, 02:39:00,VALID,916.785,VALID,0,VALID,99.5107,VALID,-0.0849042,VALID,18.7361,VALID,139,VALID,1.22882,
2002-01-22, 02:40:00,VALID,916.771,VALID,0,VALID,99.517,VALID,-0.0339617,VALID,18.7359,VALID,140,VALID,0.998633,
2002-01-22, 02:41:00,VALID,916.762,VALID,0.2,VALID,99.5234,VALID,-0.0339617,VALID,18.7456,VALID,150,VALID,1.71406,
2002-01-22, 02:42:00,VALID,916.742,VALID,0,VALID,99.5158,VALID,-0.0339617,VALID,18.7393,VALID,147,VALID,1.19631,
2002-01-22, 02:43:00,VALID,916.738,VALID,0.2,VALID,99.5221,VALID,-0.101885,VALID,18.7423,VALID,146,VALID,1.43236,
2002-01-22, 02:44:00,VALID,916.718,VALID,0,VALID,99.512,VALID,-0.0679233,VALID,18.749,VALID,151,VALID,1.18984,
2002-01-22, 02:45:00,VALID,916.714,VALID,0,VALID,99.5234,VALID,-0.0679233,VALID,18.7456,VALID,150,VALID,0.806445,
2002-01-22, 02:46:00,VALID,916.7,VALID,0.2,VALID,99.5234,VALID,-0.0339617,VALID,18.7583,VALID,150,VALID,1.28265,
2002-01-22, 02:47:00,VALID,916.699,VALID,0.2,VALID,99.5234,VALID,-0.0509425,VALID,18.7456,VALID,163,VALID,0.914474,
2002-01-22, 02:48:00,VALID,916.677,VALID,0.2,VALID,99.517,VALID,-0.0849042,VALID,18.7386,VALID,150,VALID,0.801953,
2002-01-22, 02:49:00,VALID,916.655,VALID,0,VALID,99.517,VALID,-0.0509425,VALID,18.7354,VALID,143,VALID,1.04375,
2002-01-22, 02:50:00,VALID,916.631,VALID,0.2,VALID,99.5158,VALID,-0.0169808,VALID,18.7495,VALID,141,VALID,0.927083,
2002-01-22, 02:51:00,VALID,916.604,VALID,0,VALID,99.5145,VALID,-0.0169808,VALID,18.7391,VALID,149,VALID,1.00288,
2002-01-22, 02:52:00,VALID,916.587,VALID,0.2,VALID,99.5196,VALID,-0.0509425,VALID,18.7227,VALID,158,VALID,1.02422,
2002-01-22, 02:53:00,VALID,916.572,VALID,0,VALID,99.5158,VALID,0.0849042,VALID,18.7153,VALID,136,VALID,0.390039,
2002-01-22, 02:54:00,VALID,916.554,VALID,0.2,VALID,99.5272,VALID,0.101885,VALID,18.7082,VALID,98,VALID,0.588542,
2002-01-22, 02:55:00,VALID,916.537,VALID,0,VALID,99.517,VALID,0.101885,VALID,18.6923,VALID,97,VALID,0.923931,
2002-01-22, 02:56:00,VALID,916.534,VALID,0.2,VALID,99.512,VALID,0.0849042,VALID,18.6475,VALID,85,VALID,0.975391,
2002-01-22, 02:57:00,VALID,916.534,VALID,0,VALID,99.5234,VALID,0.101885,VALID,18.6242,VALID,123,VALID,0.832812,
2002-01-22, 02:58:00,VALID,916.536,VALID,0.2,VALID,99.5221,VALID,0.0679233,VALID,18.6279,VALID,121,VALID,0.669071,
2002-01-22, 02:59:00,VALID,916.524,VALID,0.2,VALID,99.5348,VALID,0.0679233,VALID,18.6242,VALID,117,VALID,0.305304,
2002-01-22, 03:00:00,VALID,916.522,VALID,0,VALID,99.5247,VALID,0.0849042,VALID,18.6274,VALID,116,VALID,0.885742,
2002-01-22, 03:01:00,VALID,916.524,VALID,0.2,VALID,99.5247,VALID,0.0849042,VALID,18.6247,VALID,132,VALID,0.988086,
2002-01-22, 03:02:00,VALID,916.511,VALID,0.2,VALID,99.5323,VALID,0.101885,VALID,18.6214,VALID,126,VALID,0.862179,
2002-01-22, 03:03:00,VALID,916.479,VALID,0.2,VALID,99.5298,VALID,0.0679233,VALID,18.6118,VALID,136,VALID,0.792763,
2002-01-22, 03:04:00,VALID,916.46,VALID,0,VALID,99.5221,VALID,0.0849042,VALID,18.5954,VALID,136,VALID,0.772852,
2002-01-22, 03:05:00,VALID,916.457,VALID,0.2,VALID,99.5298,VALID,0.101885,VALID,18.5924,VALID,133,VALID,0.670703,
2002-01-22, 03:06:00,VALID,916.45,VALID,0,VALID,99.5374,VALID,0.0339617,VALID,18.5859,VALID,104,VALID,0.522236,
2002-01-22, 03:07:00,VALID,916.443,VALID,0,VALID,99.5336,VALID,0.0849042,VALID,18.576,VALID,110,VALID,0.563939,
2002-01-22, 03:08:00,VALID,916.431,VALID,0,VALID,99.5361,VALID,-0.0509425,VALID,18.5776,VALID,114,VALID,0.959375,
2002-01-22, 03:09:00,VALID,916.414,VALID,0,VALID,99.5387,VALID,-0.0339617,VALID,18.5709,VALID,124,VALID,0.711914,
2002-01-22, 03:10:00,VALID,916.4,VALID,0,VALID,99.5336,VALID,0,VALID,18.5746,VALID,137,VALID,1.0028,
2002-01-22, 03:11:00,VALID,916.377,VALID,0,VALID,99.5298,VALID,-0.0169808,VALID,18.5746,VALID,147,VALID,0.821546,
2002-01-22, 03:12:00,VALID,916.359,VALID,0.2,VALID,99.5361,VALID,0,VALID,18.5546,VALID,131,VALID,1.02129,
2002-01-22, 03:13:00,VALID,916.347,VALID,0,VALID,99.5476,VALID,-0.0169808,VALID,18.5679,VALID,142,VALID,0.769922,
2002-01-22, 03:14:00,VALID,916.328,VALID,0,VALID,99.5514,VALID,-0.0339617,VALID,18.5682,VALID,150,VALID,1.0597,
2002-01-22, 03:15:00,VALID,916.317,VALID,0,VALID,99.5437,VALID,0,VALID,18.5843,VALID,145,VALID,1.00925,
2002-01-22, 03:16:00,VALID,916.312,VALID,0,VALID,99.545,VALID,-0.0339617,VALID,18.5776,VALID,147,VALID,1.29512,
2002-01-22, 03:17:00,VALID,916.315,VALID,0,VALID,99.5476,VALID,-0.0509425,VALID,18.5712,VALID,142,VALID,0.797852,
2002-01-22, 03:18:00,VALID,916.308,VALID,0.2,VALID,99.5488,VALID,-0.0339617,VALID,18.5578,VALID,146,VALID,1.1851,
2002-01-22, 03:19:00,VALID,916.295,VALID,0,VALID,99.5374,VALID,-0.0339617,VALID,18.5548,VALID,141,VALID,0.7206,
2002-01-22, 03:20:00,VALID,916.288,VALID,0,VALID,99.5412,VALID,0,VALID,18.5451,VALID,136,VALID,0.598633,
2002-01-22, 03:21:00,VALID,916.274,VALID,0,VALID,99.5361,VALID,-0.0169808,VALID,18.5421,VALID,135,VALID,0.853711,
2002-01-22, 03:22:00,VALID,916.265,VALID,0,VALID,99.5488,VALID,-0.0509425,VALID,18.5327,VALID,126,VALID,0.663261,
2002-01-22, 03:23:00,VALID,916.252,VALID,0.2,VALID,99.5552,VALID,-0.0339617,VALID,18.5329,VALID,117,VALID,0.443668,
2002-01-22, 03:24:00,VALID,916.23,VALID,0,VALID,99.5488,VALID,-0.0339617,VALID,18.516,VALID,136,VALID,0.745508,
2002-01-22, 03:25:00,VALID,916.219,VALID,0,VALID,99.5463,VALID,-0.0339617,VALID,18.529,VALID,128,VALID,0.532422,
2002-01-22, 03:26:00,VALID,916.197,VALID,0,VALID,99.5499,VALID,0,VALID,18.5214,VALID,126,VALID,0.420641,
2002-01-22, 03:27:00,VALID,916.166,VALID,0,VALID,99.5476,VALID,-0.0169808,VALID,18.5197,VALID,128,VALID,0.449424,
2002-01-22, 03:28:00,VALID,916.141,VALID,0,VALID,99.5501,VALID,-0.0509425,VALID,18.5165,VALID,136,VALID,0.45625,